User: anonymous   Login
Location: Bonneuil
(46.1010°N, 2.9693°E)
Time: 09:47:49
(UTC+00:00)
Language:

Cosmos 2208 Rocket - Orbit

View from above orbital plane
View from above orbital plane
View from above satellite
View from above satellite

Ground track
Ground track

The orbit data is extracted from the following two-line orbital elements,

1 22081U 92053B   21167.76618720  .00000052  00000-0  28280-4 0  9997
2 22081  74.0447 288.5198 0036932 260.5857  99.1118 14.33530699507642
Epoch (UTC): 16 June 2021 18:23:18
Eccentricity: 0.0036932
inclination: 74.0447°
perigee height: 753 km
apogee height: 806 km
right ascension of ascending node: 288.5198°
argument of perigee: 260.5857°
revolutions per day: 14.33530699
mean anomaly at epoch: 99.1118°
orbit number at epoch: 50764

The dashed part of the orbit path shows where the satellite is in the earth's shadow,  

DLR